Skip Navigation Links
NOAA logo - Click to go to the NOAA homepage
NOAA's National Weather Service
Alaska Aviation Weather Unit
  NWS logo - Click to go to the NWS homepage
Left Navbar Graphic     21 AKDT = 05 GMT

   
NOAA is celebrating 200 years of science, service, and stewardship. Visit the NOAA 200th celebration Web site to learn more.
USA.gov is the U.S. Government's official Web portal to all Federal, state and local government Web resources and services.
Facebook
NWS on Facebook

Important Change Regarding the AAWU Web Presence

 

Over the last several months, the AAWU has been working to navigate its webpages to a nationally supported server. Security, as well as other needs, have necessitated the change.  In the process, we have made an effort to enhance the functionality of our website, as well as some of our products. As of June 27, 2017, aawu.arh.noaa.gov will be discontinued. The new AAWU web address is weather.gov/aawu. It is now live and will run in-parallel with the old site until it is discontinued. Please send any feedback or questions regarding the new webpages to nws.ar.aawu.webauthors@noaa.gov.  Thank you for your patience during this time of transition.
AAWU Home :: Display TAF Add Bookmark
METAR PABV 242356Z AUTO VRB04KT 10SM BKN038 17/09 A3008 RMK AO2
 SLP195 T01720094 10178 20117 57017 $=

METAR PABV 250056Z AUTO 35003KT 10SM FEW044 18/09 A3007 RMK AO2 SLP190
     T01780094 $=

METAR PABV 250156Z AUTO VRB04KT 10SM CLR 19/10 A3005 RMK AO2 SLP185
     T01890100 $=

METAR PABV 250256Z AUTO 29003KT 10SM CLR 19/10 A3004 RMK AO2 SLP181
 T01890100 56014 $=

METAR PABV 250356Z AUTO 28003KT 10SM CLR 18/11 A3003 RMK AO2 SLP179
     T01780106 $=

METAR PABV 250456Z AUTO 00000KT 10SM BKN080 17/10 A3003 RMK AO2 SLP178
     T01720100 $=


NOAA's National Weather Service
Alaska Aviation Weather Unit
6930 Sand Lake Road
Anchorage, AK 99502-1845
Disclaimer
Credits
Glossary
Privacy Policy
About Us
Career Opportunities
Contact AAWU Internet Services Site last modified: April, 17th 2012